Location: Buckeye Ditch
(40.9104°N, 122.9517°W)
Time: 06:52:28
(UTC+00:00)

DMSP B5D2-2 - Visible Passes

Search period start: 16 July 2024 00:00
Search period end: 26 July 2024 00:00
Orbit: 787 x 803 km, 98.3° (Epoch: 15 July)

Date Brightness Start Highest point End Pass type
(mag) Time Alt. Az. Time Alt. Az. Time Alt. Az.
16 Jul 4.8 11:33:30 10° SSE 11:38:36 55° ENE 11:43:43 10° N visible
17 Jul 5.9 11:06:10 10° SE 11:10:43 31° ENE 11:15:17 10° N visible
18 Jul 6.8 10:39:30 10° ESE 10:42:58 18° ENE 10:46:27 10° NNE visible
18 Jul 4.2 12:16:57 10° S 12:22:06 59° W 12:27:16 10° NNW visible
19 Jul 7.3 10:14:40 10° ENE 10:15:20 10° ENE 10:16:00 10° NE visible
19 Jul 4.3 11:48:49 10° SSE 11:54:02 78° ENE 11:59:16 10° N visible
20 Jul 5.3 11:21:12 10° SE 11:26:06 43° ENE 11:31:01 10° N visible
21 Jul 6.3 10:54:06 10° ESE 10:58:16 25° ENE 11:02:26 10° NNE visible
22 Jul 6.9 10:27:51 10° E 10:30:34 14° ENE 10:33:16 10° NNE visible
22 Jul 4.0 12:04:18 10° S 12:09:30 76° WSW 12:14:45 10° NNW visible
23 Jul 4.7 11:36:22 10° SSE 11:41:30 60° ENE 11:46:38 10° N visible
24 Jul 5.8 11:08:58 10° SE 11:13:36 34° ENE 11:18:14 10° N visible
25 Jul 6.6 10:42:10 10° ESE 10:45:49 20° ENE 10:49:28 10° NNE visible
25 Jul 4.2 12:19:54 10° S 12:25:00 54° W 12:30:07 10° NNW visible
